Williamtown, Australia

10:18 AM AEST on April 30, 2017 (GMT +1000)
Williamtown Military

Weather History for YWLM - June, 2013

Change the Weather History Date:

Friday, June 14, 2013

  Actual Average Record
Temperature  
Mean Temperature 56 °F -  
Max Temperature 65 °F - - ()
Min Temperature 46 °F - - ()
Degree Days  
Heating Degree Days 10    
Growing Degree Days 6 (Base 50)    
Moisture  
Dew Point 45 °F    
Average Humidity 65    
Maximum Humidity 96    
Minimum Humidity 35    
Precipitation  
Precipitation 0.00 in - - ()
Sea Level Pressure  
Sea Level Pressure 29.71 in    
Wind  
Wind Speed 13 mph ()    
Max Wind Speed 28 mph    
Max Gust Speed 43 mph    
Visibility 6.2 miles    
Events      
T = Trace of Precipitation, MM = Missing Value Source: Averaged Metar Reports

Daily Weather History Graph

Daily Weather History Graph

Search for Another Location

Airport or City:

Trip Planner

Search our weather history database for the weather conditions in past years. The results will help you decide how hot, cold, wet, or windy it might be!

Date:

Astronomy

Jun. 14, 2013 Rise Set
Actual Time 6:52 AM AEST 4:53 PM AEST
Civil Twilight 6:25 AM AEST 5:20 PM AEST
Nautical Twilight 5:54 AM AEST 5:51 PM AEST
Astronomical Twilight 5:24 AM AEST 6:21 PM AEST
Moon 10:17 AM AEST (6/14) 9:53 PM AEST (6/14)
Length of Visible Light 10h 55m
Length of Day
10h 00m
Waxing Crescent, 25% of the Moon is Illuminated
Jun 14
Waxing Crescent
Jun 17
First Quarter
Jun 23
Full
Jun 30
Last Quarter
Jul 8
New

Hourly Weather History & Observations

Time (AEST) Temp. Dew Point Humidity Pressure Visibility Wind Dir Wind Speed Gust Speed Precip Events Conditions
12:00 AM 53 °F 49 °F 81% 29.76 in - North 4.6 mph - -  
12:00 AM 53.6 °F 48.2 °F 82% 29.74 in 6.2 mi North 4.6 mph - N/A   Unknown
12:30 AM 50.0 °F 48.2 °F 94% 29.74 in 6.2 mi North 5.8 mph - N/A   Unknown
1:00 AM 49 °F 48 °F 96% 29.75 in - NNE 4.6 mph - -  
1:00 AM 50.0 °F 48.2 °F 94% 29.74 in 6.2 mi NNE 4.6 mph - N/A   Unknown
1:30 AM 50.0 °F 48.2 °F 94% 29.74 in 6.2 mi NNW 4.6 mph - N/A   Unknown
2:00 AM 51.8 °F 48.2 °F 88% 29.74 in 6.2 mi North 5.8 mph - N/A   Unknown
2:30 AM 50.0 °F 48.2 °F 94% 29.74 in 6.2 mi North 4.6 mph - N/A   Unknown
3:00 AM 47 °F 46 °F 94% 29.74 in - Calm Calm - -  
3:00 AM 48.2 °F 46.4 °F 93% 29.71 in 6.2 mi Calm Calm - N/A   Unknown
3:30 AM 48.2 °F 46.4 °F 93% 29.71 in 6.2 mi North 3.5 mph - N/A   Unknown
4:00 AM 48 °F 46 °F 90% 29.73 in - NNW 4.6 mph - -  
4:00 AM 48.2 °F 46.4 °F 93% 29.71 in 6.2 mi NNW 4.6 mph - N/A   Unknown
4:30 AM 51.8 °F 48.2 °F 88% 29.71 in 6.2 mi WNW 6.9 mph - N/A   Unknown
5:00 AM 53.6 °F 48.2 °F 82% 29.71 in 6.2 mi WNW 11.5 mph - N/A   Unknown
5:30 AM 55.4 °F 46.4 °F 72% 29.74 in 6.2 mi WNW 16.1 mph - N/A   Unknown
6:00 AM 54 °F 47 °F 70% 29.75 in - WNW 12.7 mph - -  
6:00 AM 53.6 °F 46.4 °F 77% 29.74 in - WNW 12.7 mph - N/A   Clear
6:30 AM 53.6 °F 46.4 °F 77% 29.74 in - NW 13.8 mph - N/A   Clear
7:00 AM 54 °F 46 °F 65% 29.75 in - NW 11.5 mph - -  
7:00 AM 53.6 °F 46.4 °F 77% 29.74 in - NW 11.5 mph - N/A   Clear
7:30 AM 55.4 °F 46.4 °F 72% 29.74 in 6.2 mi NW 13.8 mph - N/A   Unknown
8:00 AM 55.4 °F 46.4 °F 72% 29.74 in - WNW 12.7 mph - N/A   Clear
8:30 AM 57.2 °F 46.4 °F 67% 29.74 in 6.2 mi NW 15.0 mph - N/A   Scattered Clouds
9:00 AM 60 °F 46 °F 49% 29.76 in - WNW 19.6 mph - -  
9:00 AM 59.0 °F 46.4 °F 63% 29.74 in 6.2 mi WNW 19.6 mph - N/A   Partly Cloudy
9:35 AM 60.8 °F 44.6 °F 55% 29.74 in 6.2 mi NW 24.2 mph 35.7 mph N/A   Partly Cloudy
10:00 AM 61 °F 45 °F 44% 29.74 in - WNW 27.6 mph - -  
10:00 AM 60.8 °F 44.6 °F 55% 29.74 in 6.2 mi WNW 27.6 mph - N/A   Scattered Clouds
10:24 AM 60.8 °F 44.6 °F 55% 29.71 in 6.2 mi NW 24.2 mph 35.7 mph N/A   Scattered Clouds
10:30 AM 60.8 °F 44.6 °F 55% 29.71 in 6.2 mi WNW 27.6 mph 39.1 mph N/A   Scattered Clouds
11:00 AM 62.6 °F 44.6 °F 52% 29.71 in 6.2 mi WNW 27.6 mph 42.6 mph N/A   Partly Cloudy
11:30 AM 62.6 °F 44.6 °F 52% 29.71 in 6.2 mi NW 24.2 mph 36.8 mph N/A   Partly Cloudy
12:00 PM 63 °F 44 °F 38% 29.70 in - WNW 25.3 mph - -  
12:00 PM 62.6 °F 44.6 °F 52% 29.68 in 6.2 mi WNW 25.3 mph 38.0 mph N/A   Partly Cloudy
12:30 PM 62.6 °F 42.8 °F 48% 29.68 in 6.2 mi NW 26.5 mph - N/A   Partly Cloudy
12:42 PM 62.6 °F 42.8 °F 48% 29.68 in 6.2 mi NW 24.2 mph 35.7 mph N/A   Partly Cloudy
1:00 PM 65 °F 44 °F 35% 29.68 in - WNW 25.3 mph - -  
1:00 PM 64.4 °F 44.6 °F 49% 29.65 in 6.2 mi WNW 25.3 mph - N/A   Partly Cloudy
1:08 PM 64.4 °F 42.8 °F 45% 29.65 in 6.2 mi WNW 24.2 mph 35.7 mph N/A   Partly Cloudy
1:30 PM 64.4 °F 42.8 °F 45% 29.65 in 6.2 mi NW 26.5 mph - N/A   Scattered Clouds
1:59 PM 64.4 °F 42.8 °F 45% 29.65 in 6.2 mi WNW 26.5 mph 38.0 mph N/A   Scattered Clouds
2:30 PM 64.4 °F 42.8 °F 45% 29.65 in 6.2 mi NW 24.2 mph - N/A   Partly Cloudy
2:40 PM 64.4 °F 42.8 °F 45% 29.65 in 6.2 mi WNW 24.2 mph 35.7 mph N/A   Partly Cloudy
3:00 PM 63 °F 44 °F 38% 29.68 in - WNW 23.0 mph - -  
3:00 PM 62.6 °F 42.8 °F 48% 29.65 in 6.2 mi WNW 23.0 mph - N/A   Partly Cloudy
3:07 PM 62.6 °F 42.8 °F 48% 29.65 in 6.2 mi WNW 23.0 mph 34.5 mph N/A   Partly Cloudy
3:30 PM 62.6 °F 44.6 °F 52% 29.65 in 6.2 mi WNW 24.2 mph 36.8 mph N/A   Partly Cloudy
4:00 PM 62 °F 44 °F 41% 29.68 in - WNW 21.9 mph - -  
4:00 PM 60.8 °F 44.6 °F 55% 29.65 in 6.2 mi WNW 21.9 mph - N/A   Partly Cloudy
4:30 PM 60.8 °F 44.6 °F 55% 29.68 in 6.2 mi WNW 20.7 mph - N/A   Partly Cloudy
5:00 PM 59.0 °F 46.4 °F 63% 29.68 in 6.2 mi NW 20.7 mph - N/A   Unknown
5:30 PM 57.2 °F 46.4 °F 67% 29.68 in 6.2 mi WNW 20.7 mph - N/A   Unknown
6:00 PM 57 °F 46 °F 58% 29.71 in - WNW 21.9 mph - -  
6:00 PM 57.2 °F 46.4 °F 67% 29.71 in 6.2 mi WNW 21.9 mph - N/A   Unknown
6:30 PM 57.2 °F 44.6 °F 63% 29.71 in 6.2 mi WNW 20.7 mph - N/A   Unknown
7:00 PM 56 °F 44 °F 55% 29.72 in - WNW 18.4 mph - -  
7:00 PM 55.4 °F 44.6 °F 67% 29.71 in 6.2 mi WNW 18.4 mph - N/A   Unknown
7:30 PM 57.2 °F 42.8 °F 59% 29.71 in 6.2 mi WNW 19.6 mph - N/A   Scattered Clouds
8:00 PM 57.2 °F 42.8 °F 59% 29.71 in 6.2 mi WNW 20.7 mph - N/A   Overcast
8:31 PM 57.2 °F 44.6 °F 63% 29.74 in 6.2 mi WNW 21.9 mph 33.4 mph N/A   Overcast
9:00 PM 56 °F 45 °F 56% 29.75 in - WNW 23.0 mph - -  
9:00 PM 55.4 °F 44.6 °F 67% 29.74 in 6.2 mi WNW 23.0 mph - N/A   Mostly Cloudy
9:30 PM 55.4 °F 44.6 °F 67% 29.74 in 6.2 mi WNW 21.9 mph - N/A   Overcast
10:00 PM 56 °F 46 °F 59% 29.75 in - WNW 21.9 mph - -  
10:00 PM 55.4 °F 46.4 °F 72% 29.74 in 6.2 mi WNW 21.9 mph - N/A   Mostly Cloudy
10:30 PM 55.4 °F 46.4 °F 72% 29.74 in 6.2 mi WNW 23.0 mph - N/A   Overcast
11:00 PM 55.4 °F 46.4 °F 72% 29.74 in 6.2 mi WNW 21.9 mph - N/A   Overcast
11:30 PM 55.4 °F 44.6 °F 67% 29.74 in 6.2 mi WNW 20.7 mph - N/A   Mostly Cloudy